Skip Page Navigation
NASA JPL Caltech
NASA Logo - Jet Propulsion Laboratory + View the NASA Portal
+ Center for Near-Earth Object Studies
JPL Home Earth Solar System Stars & Galaxies Technology
JPL Solar System Dynamics
BODIES ORBITS EPHEMERIDES TOOLS PHYSICAL DATA DISCOVERY FAQ SITE MAP
IMPORTANT: The SSD Announcement email list is now available. Major changes are coming in the near future, including possible hostname and/or URL changes. To be notified of such changes, subscribe to this email list.

Please visit this page for more details.


JPL Small-Body Database Browser
Search: [ help ]  
305934 (2009 FX76)
Classification: Main-belt Asteroid          SPK-ID: 2305934
Ephemeris | Orbit Diagram | Orbital Elements | Mission Design | Physical Parameters | Discovery Circumstances | Close-Approach Data ]

[ show orbit diagram ]
Orbital Elements at Epoch 2459000.5 (2020-May-31.0) TDB
Reference: JPL 12 (heliocentric ecliptic J2000)
 Element Value Uncertainty (1-sigma)   Units 
e .02909095651063049 7.4621e-08  
a 2.727561708928795 3.7641e-08 au
q 2.648214329874286 2.1353e-07 au
i 6.187618967980714 7.5903e-06 deg
node 30.00773084253176 6.9545e-05 deg
peri 28.6602271159564 0.00015559 deg
M 315.5232144453018 0.00014171 deg
tp 2459203.778382200614
(2020-Dec-20.27838220)
0.0006497 TDB
period 1645.357610257672
4.50
3.406e-05
9.325e-08
d
yr
n .2187974199381629 4.5292e-09 deg/d
Q 2.806909087983303 3.8736e-08 au
  Orbit Determination Parameters
   # obs. used (total)      152  
   data-arc span      4743 days (12.99 yr)  
   first obs. used      2006-08-29  
   last obs. used      2019-08-24  
   planetary ephem.      DE431  
   SB-pert. ephem.      SB431-N16  
   condition code      0  
   norm. resid. RMS      .591  
   source      ORB  
   producer      Otto Matic  
   solution date      2019-Sep-24 05:55:10  

Additional Information
 Earth MOID = 1.66049 au 
 Jupiter MOID = 2.27837 au 
 T_jup = 3.347 
[ show covariance matrix ]

Ephemeris | Orbit Diagram | Orbital Elements | Mission Design | Physical Parameters | Discovery Circumstances | Close-Approach Data ]

Physical Parameter Table
Parameter Symbol Value Units Sigma Reference Notes
absolute magnitude H 16.4   n/a MPO440441  

305934 (2009 FX76)          Discovered 2009-Mar-16 by Spacewatch at Kitt Peak
Reference: 20111110/Numbers.arcLast Updated: 2011-11-14

[ show close-approach data ]
Ephemeris | Orbit Diagram | Orbital Elements | Mission Design | Physical Parameters | Discovery Circumstances | Close-Approach Data ]
ABOUT SSD CREDITS/AWARDS PRIVACY/COPYRIGHT GLOSSARY LINKS
FirstGov 2020-May-29 06:30 UT
(server date/time)  
NASA Home Page
Site Manager:   Ryan S. Park
Webmaster  Alan B. Chamberlin